Overview Statistics Trail Chart Weather Telemetry Raw packets
 

This is the latest recevied weather packets stored in our database for station/object W7TRD. If no packets are shown the sender has not sent any weather packets the latest 10 day(s).

<< 23 24 25 26 27 28 29 >>
Time Temp. Humidity Pressure Rain* Wind** Luminosity Snow
1788462682 16.11° C 76% 1011.4 hPa 0 mm - 299 W/m² -
1788462382 16.67° C 74% 1011.4 hPa 0 mm - 327 W/m² -
1788462082 16.67° C 73% 1011.2 hPa 0 mm - 311 W/m² -
1788461777 16.67° C 76% 1011 hPa 0 mm - 366 W/m² -
1788461472 16.67° C 77% 1011.1 hPa 0 mm - 223 W/m² -
1788461169 16.67° C 80% 1011.1 hPa 0 mm - 319 W/m² -
1788460869 16.11° C 80% 1011.1 hPa 0 mm - 293 W/m² -
1788460567 16.11° C 80% 1011 hPa 0 mm - 319 W/m² -
1788460263 15.56° C 81% 1011.1 hPa 0 mm - 204 W/m² -
1788459961 15.56° C 84% 1011.1 hPa 0 mm - 171 W/m² -
1788459658 15.56° C 84% 1011.4 hPa 0 mm - 133 W/m² -
1788459356 16.11° C 84% 1011.1 hPa 0 mm - 144 W/m² -
1788459051 15.56° C 84% 1011.3 hPa 0 mm - 277 W/m² -
1788458746 15.56° C 84% 1011.2 hPa 0 mm - 318 W/m² -
1788458441 15° C 87% 1011.3 hPa 0 mm - 252 W/m² -
1788458139 15.56° C 84% 1011.1 hPa 0 mm - 153 W/m² -
1788457857 16.11° C 86% 1011.3 hPa 0 mm - 186 W/m² -
1788457534 16.67° C 85% 1011.2 hPa 0 mm - 184 W/m² -
1788457229 16.11° C 85% 1011.2 hPa 0 mm - 228 W/m² -
1788456924 15.56° C 85% 1011.1 hPa 0 mm - 204 W/m² -
1788456621 15° C 92% 1011.2 hPa 0 mm - 204 W/m² -
1788456320 14.44° C 92% 1011.4 hPa 0 mm - 176 W/m² -
1788456017 13.89° C 93% 1011.5 hPa 0 mm - 282 W/m² -
1788455717 13.89° C 94% 1011.5 hPa 0 mm - 345 W/m² -
1788455412 13.33° C 98% 1011.4 hPa 0 mm - 339 W/m² -

* Rain latest hour (hover to see other rain measurements)
** Current wind speed in m/s (hover to see current wind gust speed)